Location: Calvera
(42.3882°N, 0.6137°E)
Time: 20:16:52
(UTC+00:00)

CZ-4B R/B - Pass Details

Date: 28 October 2020
Orbit: 496 x 647 km, 97.8° (Epoch: 23 November)

Event Time Altitude Azimuth Distance (km) Brightness Sun altitude
Rises 04:51:12 0° 12° (NNE) 2,866 7.6 -18.1°
Reaches altitude 10° 04:53:25 10° 11° (NNE) 1,935 6.7 -17.7°
Maximum altitude 04:57:37 85° 284° (WNW) 581 3.8 -16.9°
Drops below altitude 10° 05:01:35 10° 196° (SSW) 1,827 6.3 -16.2°
Sets 05:03:39 0° 196° (SSW) 2,692 7.2 -15.8°
